Year,Month,Day,Hour,Minute,Value (Times are PST for temperature in C)
2013,12,07,08,28,-4.70
2013,12,07,08,29,-4.70
2013,12,07,08,30,-4.70
2013,12,07,08,31,-4.70
2013,12,07,08,32,-4.70
2013,12,07,08,33,-4.70
2013,12,07,08,34,-4.70
2013,12,07,08,35,-4.70
2013,12,07,08,36,-4.70
2013,12,07,08,37,-4.70
2013,12,07,08,38,-4.70
2013,12,07,08,39,-4.70
2013,12,07,08,40,-4.70
2013,12,07,08,41,-4.70
2013,12,07,08,42,-4.70
2013,12,07,08,43,-4.70
2013,12,07,08,44,-4.70
2013,12,07,08,45,-4.70
2013,12,07,08,46,-4.70
2013,12,07,08,47,-4.70
2013,12,07,08,48,-4.70
2013,12,07,08,49,-4.70
2013,12,07,08,50,-4.70
2013,12,07,08,51,-4.70
2013,12,07,08,52,-4.70
2013,12,07,08,53,-4.70
2013,12,07,08,54,-4.70
2013,12,07,08,55,-4.70
2013,12,07,08,56,-4.70
2013,12,07,08,57,-4.70
2013,12,07,08,58,-4.70
2013,12,07,08,59,-4.70
2013,12,07,09,00,-4.70
2013,12,07,09,01,-4.70
2013,12,07,09,02,-4.60
2013,12,07,09,03,-4.60
2013,12,07,09,04,-4.70
2013,12,07,09,05,-4.70
2013,12,07,09,06,-4.70
2013,12,07,09,07,-4.70
2013,12,07,09,08,-4.70
2013,12,07,09,09,-4.70
2013,12,07,09,10,-4.70
2013,12,07,09,11,-4.70
2013,12,07,09,12,-4.60
2013,12,07,09,13,-4.60
2013,12,07,09,14,-4.60
2013,12,07,09,15,-4.60
2013,12,07,09,16,-4.60
2013,12,07,09,17,-4.60
2013,12,07,09,18,-4.60
2013,12,07,09,19,-4.60
2013,12,07,09,20,-4.60
2013,12,07,09,21,-4.60
2013,12,07,09,22,-4.60
2013,12,07,09,23,-4.60
2013,12,07,09,24,-4.50
2013,12,07,09,25,-4.50
2013,12,07,09,26,-4.50
2013,12,07,09,27,-4.40
2013,12,07,09,28,-4.40
2013,12,07,09,29,-4.40
2013,12,07,09,30,-4.30
2013,12,07,09,31,-4.30
2013,12,07,09,32,-4.30
2013,12,07,09,33,-4.30
2013,12,07,09,34,-4.20
2013,12,07,09,35,-4.20
2013,12,07,09,36,-4.20
2013,12,07,09,37,-4.20
2013,12,07,09,38,-4.20
2013,12,07,09,39,-4.10
2013,12,07,09,40,-4.10
2013,12,07,09,41,-4.10
2013,12,07,09,42,-4.00
2013,12,07,09,43,-4.00
2013,12,07,09,44,-4.00
2013,12,07,09,45,-4.00
2013,12,07,09,46,-3.90
2013,12,07,09,47,-3.90
2013,12,07,09,48,-3.90
2013,12,07,09,49,-3.90
2013,12,07,09,50,-3.80
2013,12,07,09,51,-3.80
2013,12,07,09,52,-3.90
2013,12,07,09,53,-3.90
2013,12,07,09,54,-3.90
2013,12,07,09,55,-3.90
2013,12,07,09,56,-3.90
2013,12,07,09,57,-3.90
2013,12,07,09,58,-3.80
2013,12,07,09,59,-3.80
2013,12,07,10,00,-3.70
2013,12,07,10,01,-3.80
2013,12,07,10,02,-3.80
2013,12,07,10,03,-3.70
2013,12,07,10,04,-3.70
2013,12,07,10,05,-3.70
2013,12,07,10,06,-3.70
2013,12,07,10,07,-3.70
2013,12,07,10,08,-3.60
2013,12,07,10,09,-3.60
2013,12,07,10,10,-3.50
2013,12,07,10,11,-3.50
2013,12,07,10,12,-3.50
2013,12,07,10,13,-3.50
2013,12,07,10,14,-3.50
2013,12,07,10,15,-3.50
2013,12,07,10,16,-3.50
2013,12,07,10,17,-3.50
2013,12,07,10,18,-3.50
2013,12,07,10,19,-3.50
2013,12,07,10,20,-3.50
2013,12,07,10,21,-3.50
2013,12,07,10,22,-3.50
2013,12,07,10,23,-3.50
2013,12,07,10,24,-3.40
2013,12,07,10,25,-3.50
2013,12,07,10,26,-3.50
2013,12,07,10,27,-3.50
2013,12,07,10,28,-3.50
2013,12,07,10,29,-3.40
2013,12,07,10,30,-3.40
2013,12,07,10,31,-3.40
2013,12,07,10,32,-3.40
2013,12,07,10,33,-3.30
2013,12,07,10,34,-3.30
2013,12,07,10,35,-3.20
2013,12,07,10,36,-3.20
2013,12,07,10,37,-3.10
2013,12,07,10,38,-3.00
2013,12,07,10,39,-3.00
2013,12,07,10,40,-3.00
2013,12,07,10,41,-2.90
2013,12,07,10,42,-2.90
2013,12,07,10,43,-2.90
2013,12,07,10,44,-2.90
2013,12,07,10,45,-3.00
2013,12,07,10,46,-3.00
2013,12,07,10,47,-3.00
2013,12,07,10,48,-3.00
2013,12,07,10,49,-3.00
2013,12,07,10,50,-3.00
2013,12,07,10,51,-3.00
2013,12,07,10,52,-2.90
2013,12,07,10,53,-2.90
2013,12,07,10,54,-2.90
2013,12,07,10,55,-2.90
2013,12,07,10,56,-2.90
2013,12,07,10,57,-2.90
2013,12,07,10,58,-2.90
2013,12,07,10,59,-2.90
2013,12,07,11,00,-2.90
2013,12,07,11,01,-2.90
2013,12,07,11,02,-2.90
2013,12,07,11,03,-2.90
2013,12,07,11,04,-2.80
2013,12,07,11,05,-2.80
2013,12,07,11,06,-2.80
2013,12,07,11,07,-2.80
2013,12,07,11,08,-2.90
2013,12,07,11,09,-2.90
2013,12,07,11,10,-2.80
2013,12,07,11,11,-2.80
2013,12,07,11,12,-2.80
2013,12,07,11,13,-2.80
2013,12,07,11,14,-2.70
2013,12,07,11,15,-2.70
2013,12,07,11,16,-2.70
2013,12,07,11,17,-2.70
2013,12,07,11,18,-2.80
2013,12,07,11,19,-2.80
2013,12,07,11,20,-2.80
2013,12,07,11,21,-2.70
2013,12,07,11,22,-2.70
2013,12,07,11,23,-2.60
2013,12,07,11,24,-2.60
2013,12,07,11,25,-2.60
2013,12,07,11,26,-2.50
2013,12,07,11,27,-2.50
2013,12,07,11,28,-2.50
2013,12,07,11,29,-2.50
2013,12,07,11,30,-2.60
2013,12,07,11,31,-2.60
2013,12,07,11,32,-2.50
2013,12,07,11,33,-2.50
2013,12,07,11,34,-2.50
2013,12,07,11,35,-2.50
2013,12,07,11,36,-2.50
2013,12,07,11,37,-2.50
2013,12,07,11,38,-2.50
2013,12,07,11,39,-2.50
2013,12,07,11,40,-2.40
2013,12,07,11,41,-2.40
2013,12,07,11,42,-2.30
2013,12,07,11,43,-2.30
2013,12,07,11,44,-2.30
2013,12,07,11,45,-2.20
2013,12,07,11,46,-2.10
2013,12,07,11,47,-2.10
2013,12,07,11,48,-2.00
2013,12,07,11,49,-2.00
2013,12,07,11,50,-1.90
2013,12,07,11,51,-1.80
2013,12,07,11,52,-1.90
2013,12,07,11,53,-1.90
2013,12,07,11,54,-1.90
2013,12,07,11,55,-2.00
2013,12,07,11,56,-2.00
2013,12,07,11,57,-2.00
2013,12,07,11,58,-1.90
2013,12,07,11,59,-1.90
2013,12,07,12,00,-1.80
2013,12,07,12,01,-1.80
2013,12,07,12,02,-1.80
2013,12,07,12,03,-1.80
2013,12,07,12,04,-1.80
2013,12,07,12,05,-1.80
2013,12,07,12,06,-1.90
2013,12,07,12,07,-1.90
2013,12,07,12,08,-1.90
2013,12,07,12,09,-1.90
2013,12,07,12,10,-1.80
2013,12,07,12,11,-1.80
2013,12,07,12,12,-1.80
2013,12,07,12,13,-1.70
2013,12,07,12,14,-1.70
2013,12,07,12,15,-1.70
2013,12,07,12,16,-1.60
2013,12,07,12,17,-1.60
2013,12,07,12,18,-1.70
2013,12,07,12,19,-1.80
2013,12,07,12,20,-1.80
2013,12,07,12,21,-1.80
2013,12,07,12,22,-1.80
2013,12,07,12,23,-1.70
2013,12,07,12,24,-1.70
2013,12,07,12,25,-1.60
2013,12,07,12,26,-1.60
2013,12,07,12,27,-1.60
2013,12,07,12,28,-1.50
2013,12,07,12,29,-1.50
2013,12,07,12,30,-1.50
2013,12,07,12,31,-1.60
2013,12,07,12,32,-1.60
2013,12,07,12,33,-1.60
2013,12,07,12,34,-1.60
2013,12,07,12,35,-1.60
2013,12,07,12,36,-1.60
2013,12,07,12,37,-1.60
2013,12,07,12,38,-1.70
2013,12,07,12,39,-1.70
2013,12,07,12,40,-1.70
2013,12,07,12,41,-1.70
2013,12,07,12,42,-1.70
2013,12,07,12,43,-1.60
2013,12,07,12,44,-1.60
2013,12,07,12,45,-1.60
2013,12,07,12,46,-1.60
2013,12,07,12,47,-1.60
2013,12,07,12,48,-1.70
2013,12,07,12,49,-1.70
2013,12,07,12,50,-1.70
2013,12,07,12,51,-1.70
2013,12,07,12,52,-1.70
2013,12,07,12,53,-1.70
2013,12,07,12,54,-1.70
2013,12,07,12,55,-1.70
2013,12,07,12,56,-1.70
2013,12,07,12,57,-1.80
2013,12,07,12,58,-1.80
2013,12,07,12,59,-1.70
2013,12,07,13,00,-1.70
2013,12,07,13,01,-1.70
2013,12,07,13,02,-1.70
2013,12,07,13,03,-1.60
2013,12,07,13,04,-1.60
2013,12,07,13,05,-1.50
2013,12,07,13,06,-1.50
2013,12,07,13,07,-1.60
2013,12,07,13,08,-1.60
2013,12,07,13,09,-1.60
2013,12,07,13,10,-1.50
2013,12,07,13,11,-1.60
2013,12,07,13,12,-1.50
2013,12,07,13,13,-1.50
2013,12,07,13,14,-1.50
2013,12,07,13,15,-1.40
2013,12,07,13,16,-1.40
2013,12,07,13,17,-1.40
2013,12,07,13,18,-1.40
2013,12,07,13,19,-1.50
2013,12,07,13,20,-1.60
2013,12,07,13,21,-1.60
2013,12,07,13,22,-1.70
2013,12,07,13,23,-1.70
2013,12,07,13,24,-1.70
2013,12,07,13,25,-1.70
2013,12,07,13,26,-1.70
2013,12,07,13,27,-1.70
2013,12,07,13,28,-1.80
2013,12,07,13,29,-1.80
2013,12,07,13,30,-1.80
2013,12,07,13,31,-1.80
2013,12,07,13,32,-1.70
2013,12,07,13,33,-1.70
2013,12,07,13,34,-1.70
2013,12,07,13,35,-1.70
2013,12,07,13,36,-1.70
2013,12,07,13,37,-1.80
2013,12,07,13,38,-1.80
2013,12,07,13,39,-1.80
2013,12,07,13,40,-1.80
2013,12,07,13,41,-1.80
2013,12,07,13,42,-1.80
2013,12,07,13,43,-1.70
2013,12,07,13,44,-1.70
2013,12,07,13,45,-1.60
2013,12,07,13,46,-1.60
2013,12,07,13,47,-1.60
2013,12,07,13,48,-1.60
2013,12,07,13,49,-1.60
2013,12,07,13,50,-1.60
2013,12,07,13,51,-1.60
2013,12,07,13,52,-1.60
2013,12,07,13,53,-1.50
2013,12,07,13,54,-1.50
2013,12,07,13,55,-1.50
2013,12,07,13,56,-1.40
2013,12,07,13,57,-1.50
2013,12,07,13,58,-1.50
2013,12,07,13,59,-1.50
2013,12,07,14,00,-1.50
2013,12,07,14,01,-1.40
2013,12,07,14,02,-1.40
2013,12,07,14,03,-1.50
2013,12,07,14,04,-1.50
2013,12,07,14,05,-1.40
2013,12,07,14,06,-1.50
2013,12,07,14,07,-1.50
2013,12,07,14,08,-1.60
2013,12,07,14,09,-1.60
2013,12,07,14,10,-1.70
2013,12,07,14,11,-1.70
2013,12,07,14,12,-1.70
2013,12,07,14,13,-1.70
2013,12,07,14,14,-1.70
2013,12,07,14,15,-1.70
2013,12,07,14,16,-1.70
2013,12,07,14,17,-1.70
2013,12,07,14,18,-1.70
2013,12,07,14,19,-1.70
2013,12,07,14,20,-1.70
2013,12,07,14,21,-1.60
2013,12,07,14,22,-1.70
2013,12,07,14,23,-1.60
2013,12,07,14,24,-1.70
2013,12,07,14,25,-1.70
2013,12,07,14,26,-1.70
2013,12,07,14,27,-1.80
2013,12,07,14,28,-1.80
2013,12,07,14,29,-1.80
2013,12,07,14,30,-1.70
2013,12,07,14,31,-1.70
2013,12,07,14,32,-1.70
2013,12,07,14,33,-1.60
2013,12,07,14,34,-1.60
2013,12,07,14,35,-1.60
2013,12,07,14,36,-1.60
2013,12,07,14,37,-1.60
2013,12,07,14,38,-1.60
2013,12,07,14,39,-1.60
2013,12,07,14,40,-1.70
2013,12,07,14,41,-1.70
2013,12,07,14,42,-1.70
2013,12,07,14,43,-1.70
2013,12,07,14,44,-1.70
2013,12,07,14,45,-1.70
2013,12,07,14,46,-1.70
2013,12,07,14,47,-1.70
2013,12,07,14,48,-1.70
2013,12,07,14,49,-1.70
2013,12,07,14,50,-1.80
2013,12,07,14,51,-1.80
2013,12,07,14,52,-1.80
2013,12,07,14,53,-1.80
2013,12,07,14,54,-1.80
2013,12,07,14,55,-1.70
2013,12,07,14,56,-1.70
2013,12,07,14,57,-1.70
2013,12,07,14,58,-1.70
2013,12,07,14,59,-1.60
2013,12,07,15,00,-1.60
2013,12,07,15,01,-1.60
2013,12,07,15,02,-1.50
2013,12,07,15,03,-1.50
2013,12,07,15,04,-1.50
2013,12,07,15,05,-1.50
2013,12,07,15,06,-1.50
2013,12,07,15,07,-1.50
2013,12,07,15,08,-1.60
2013,12,07,15,09,-1.60
2013,12,07,15,10,-1.60
2013,12,07,15,11,-1.60
2013,12,07,15,12,-1.60
2013,12,07,15,13,-1.60
2013,12,07,15,14,-1.60
2013,12,07,15,15,-1.60
2013,12,07,15,16,-1.60
2013,12,07,15,17,-1.60
2013,12,07,15,18,-1.60
2013,12,07,15,19,-1.60
2013,12,07,15,20,-1.60
2013,12,07,15,21,-1.50
2013,12,07,15,22,-1.50
2013,12,07,15,23,-1.50
2013,12,07,15,24,-1.50
2013,12,07,15,25,-1.50
2013,12,07,15,26,-1.50
2013,12,07,15,27,-1.50
2013,12,07,15,28,-1.50
2013,12,07,15,29,-1.50
2013,12,07,15,30,-1.60
2013,12,07,15,31,-1.60
2013,12,07,15,32,-1.60
2013,12,07,15,33,-1.60
2013,12,07,15,34,-1.70
2013,12,07,15,35,-1.70
2013,12,07,15,36,-1.70
2013,12,07,15,37,-1.70
2013,12,07,15,38,-1.70
2013,12,07,15,39,-1.70
2013,12,07,15,40,-1.70
2013,12,07,15,41,-1.70
2013,12,07,15,42,-1.70
2013,12,07,15,43,-1.70
2013,12,07,15,44,-1.70
2013,12,07,15,45,-1.70
2013,12,07,15,46,-1.70
2013,12,07,15,47,-1.80
2013,12,07,15,48,-1.80
2013,12,07,15,49,-1.80
2013,12,07,15,50,-1.80
2013,12,07,15,51,-1.80
2013,12,07,15,52,-1.80
2013,12,07,15,53,-1.80
2013,12,07,15,54,-1.80
2013,12,07,15,55,-1.80
2013,12,07,15,56,-1.80
2013,12,07,15,57,-1.80
2013,12,07,15,58,-1.80
2013,12,07,15,59,-1.80
2013,12,07,16,00,-1.80
2013,12,07,16,01,-1.80
2013,12,07,16,02,-1.80
2013,12,07,16,03,-1.80
2013,12,07,16,04,-1.80
2013,12,07,16,05,-1.80
2013,12,07,16,06,-1.80
2013,12,07,16,07,-1.80
2013,12,07,16,08,-1.70
2013,12,07,16,09,-1.30
2013,12,07,16,10,-1.30
2013,12,07,16,11,-1.40
2013,12,07,16,12,-1.40
2013,12,07,16,13,-1.40
2013,12,07,16,14,-1.50
2013,12,07,16,15,-1.50
2013,12,07,16,16,-1.50
2013,12,07,16,17,-1.60
2013,12,07,16,18,-1.60
2013,12,07,16,19,-1.60
2013,12,07,16,20,-1.60
2013,12,07,16,21,-1.70
2013,12,07,16,22,-1.70
2013,12,07,16,23,-1.70
2013,12,07,16,24,-1.70
2013,12,07,16,25,-1.70
2013,12,07,16,26,-1.70
2013,12,07,16,27,-1.70
2013,12,07,16,28,-1.70
2013,12,07,16,29,-1.70
2013,12,07,16,30,-1.80
2013,12,07,16,31,-1.80
2013,12,07,16,32,-1.70
2013,12,07,16,33,-1.70
2013,12,07,16,34,-1.70
2013,12,07,16,35,-1.70
2013,12,07,16,36,-1.70
2013,12,07,16,37,-1.70
2013,12,07,16,38,-1.80
2013,12,07,16,39,-1.70
2013,12,07,16,40,-1.70
2013,12,07,16,41,-1.80
2013,12,07,16,42,-1.80
2013,12,07,16,43,-1.80
2013,12,07,16,44,-1.80
2013,12,07,16,45,-1.80
2013,12,07,16,46,-1.80
2013,12,07,16,47,-1.80
2013,12,07,16,48,-1.80
2013,12,07,16,49,-1.80
2013,12,07,16,50,-1.80
2013,12,07,16,51,-1.80
